This demonstration page uses our WeatherBlox Daily Observations layout. Learn more.

Left ArrowRight Arrow

Hourly Observations for September 27, 2019

Temp ( °F °C ) Dew Point ( °F °C ) Humidity (%) Winds ( mph kmh ) Pressure ( in mb ) Visibility ( mi km ) Precip ( " mm )
12:28 am 00:28 Cloudy 69 20.6 61 16.1 76 76 S 13 20 29.62 1003 10 16 0.00 0.00
12:54 am 00:54 Cloudy 70 21.1 62 16.7 76 76 S 14 22 29.62 1003 10 16 0.00 0.00
1:54 am 01:54 Cloudy 70 21.1 62 16.7 76 76 S 15 24 29.60 1003 10 16 0.00 0.00
2:26 am 02:26 Cloudy 71 21.7 63 17.2 76 76 S 14 22 29.58 1002 10 16 0.00 0.00
2:42 am 02:42 Cloudy 71 21.7 64 17.8 79 79 S 12 19 29.58 1002 10 16 0.00 0.00
2:54 am 02:54 Cloudy 71 21.7 65 18.3 81 81 S 14 22 29.58 1002 10 16 0.00 0.00
3:27 am 03:27 Cloudy 71 21.7 65 18.3 81 81 S 14 22 29.55 1001 10 16 0.00 0.00
3:43 am 03:43 Cloudy 70 21.1 65 18.3 84 84 S 10 17 29.55 1001 10 16 0.00 0.00
3:54 am 03:54 Cloudy 71 21.7 65 18.3 81 81 S 10 17 29.55 1001 10 16 0.00 0.00
4:12 am 04:12 Cloudy 71 21.7 65 18.3 81 81 S 12 19 29.54 1000 10 16 0.00 0.00
4:24 am 04:24 Cloudy 71 21.7 65 18.3 81 81 S 12 19 29.53 1000 10 16 0.00 0.00
4:54 am 04:54 Cloudy 71 21.7 66 18.9 84 84 S 12 19 29.54 1000 10 16 0.00 0.00
5:54 am 05:54 Cloudy 72 22.2 66 18.9 82 82 NW 7 11 29.58 1002 10 16 0.00 0.00
6:23 am 06:23 Cloudy with Light Rain 70 21.1 68 20 93 93 NW 3 6 29.57 1001 2 3 0.01 0.25
6:45 am 06:45 Cloudy with Light Rain 70 21.1 68 20 93 93 N 5 7 29.57 1001 3 4 0.03 0.76
6:54 am 06:54 Cloudy with Light Rain 70 21.1 68 20 93 93 ESE 6 9 29.56 1001 3 4 0.03 0.76
7:07 am 07:07 Cloudy with Mist and Fog 69 20.6 68 20 96 96 ESE 3 6 29.56 1001 3 5 0.00 0.00
7:13 am 07:13 Cloudy with Mist and Fog 70 21.1 68 20 93 93 Calm 29.56 1001 3 5 0.00 0.00
7:20 am 07:20 Cloudy with Mist and Fog 70 21.1 68 20 93 93 Calm 29.56 1001 4 6 0.00 0.00
7:36 am 07:36 Cloudy with Mist and Fog 70 21.1 68 20 93 93 NE 3 6 29.56 1001 5 8 0.00 0.00
7:54 am 07:54 Cloudy with Mist and Fog 70 21.1 68 20 93 93 NNE 3 6 29.56 1001 3 5 0.00 0.00
8:19 am 08:19 Cloudy with Mist and Fog 70 21.1 67 19.4 90 90 NE 6 9 29.56 1001 4 6 0.00 0.00
8:45 am 08:45 Cloudy with Mist and Fog 69 20.6 67 19.4 93 93 ENE 6 9 29.56 1001 3 5 0.00 0.00
8:54 am 08:54 Cloudy with Mist and Fog 70 21.1 68 20 93 93 ENE 5 7 29.57 1002 3 5 0.00 0.00
9:11 am 09:11 Cloudy with Light Rain 70 21.1 68 20 93 93 N 5 7 29.57 1001 3 5 0.00 0.00
9:30 am 09:30 Cloudy with Light Rain 69 20.6 67 19.4 93 93 N 6 9 29.58 1002 2 3 0.01 0.25
9:54 am 09:54 Cloudy with Light Rain 69 20.6 66 18.9 90 90 NNW 13 20 29.60 1003 3 4 0.03 0.76
10:03 am 10:03 Cloudy with Light Rain 68 20 65 18.3 90 90 N 15 24 29.60 1002 4 6 0.00 0.00
10:16 am 10:16 Cloudy with Light Rain 69 20.6 66 18.9 90 90 N 12 19 29.59 1002 7 11 0.00 0.00
10:54 am 10:54 Cloudy 69 20.6 64 17.8 84 84 N 10 17 29.62 1003 10 16 0.00 0.00
11:23 am 11:23 Cloudy 70 21.1 64 17.8 82 82 NNE 9 15 29.61 1003 10 16 0.00 0.00
11:54 am 11:54 Cloudy 70 21.1 63 17.2 79 79 N 13 20 29.63 1004 10 16 0.00 0.00
12:54 pm 12:54 Cloudy 73 22.8 63 17.2 71 71 NNE 12 19 29.63 1004 10 16 0.00 0.00
1:54 pm 13:54 Cloudy 76 24.4 61 16.1 60 60 NNE 16 26 29.65 1004 10 16 0.00 0.00
2:54 pm 14:54 Mostly Sunny 75 23.9 57 13.9 54 54 N 22 35 29.66 1004 10 16 0.00 0.00
3:54 pm 15:54 Cloudy 72 22.2 55 12.8 55 55 N 20 31 29.69 1006 10 16 0.00 0.00
4:54 pm 16:54 Mostly Sunny 74 23.3 54 12.2 50 50 NNE 18 30 29.69 1006 10 16 0.00 0.00
5:54 pm 17:54 Sunny 71 21.7 52 11.1 51 51 NNE 16 26 29.72 1007 10 16 0.00 0.00
6:54 pm 18:54 Sunny 68 20 52 11.1 57 57 N 14 22 29.75 1008 10 16 0.00 0.00
7:54 pm 19:54 Cloudy 67 19.4 51 10.6 57 57 N 12 19 29.77 1008 10 16 0.00 0.00
8:54 pm 20:54 Cloudy 65 18.3 50 10 59 59 N 15 24 29.77 1008 10 16 0.00 0.00
9:54 pm 21:54 Clear 63 17.2 49 9.4 60 60 N 13 20 29.81 1010 10 16 0.00 0.00
10:54 pm 22:54 Cloudy 63 17.2 49 9.4 60 60 N 13 20 29.87 1012 10 16 0.00 0.00
11:54 pm 23:54 Cloudy 62 16.7 50 10 65 65 N 21 33 29.91 1013 10 16 0.00 0.00

Powered by AerisWeather